Location: DARK SKY Beskydy - Park tmavé oblohy, www.darkskybeskydy.cz
(49.4926°N, 18.5016°E)
Time: 09:31:48
(UTC+01:00)

BlueWalker 3 - Pass Details

Date: 04 December 2022
Orbit: 499 x 517 km, 53.2° (Epoch: 29 January)

Event Time Altitude Azimuth Distance (km) Brightness Sun altitude
Rises 17:58:16 0° 289° (WNW) 2,629 6.6 -20.2°
Reaches altitude 10° 18:00:30 10° 293° (WNW) 1,738 5.4 -20.6°
Enters shadow 18:04:20 58° 10° (N) 598 2.1 -21.2°
